Location: Observatory
(52.1446°N, 0.4624°W)
Time: 22:37:39
(UTC+00:00)

ISS - Pass Details

Date: 08 January 2018
Orbit: 402 x 407 km, 51.6° (Epoch: 22 January)

Event Time Altitude Azimuth Distance (km) Brightness Sun altitude
Exits shadow 07:11:20 10° 275° (W) 1,476 -1.6 -8.3°
Reaches altitude 10° 07:11:21 10° 274° (W) 1,470 -1.6 -8.3°
Maximum altitude 07:14:27 39° 204° (SSW) 625 -2.9 -7.9°
Drops below altitude 10° 07:17:33 10° 134° (SE) 1,467 0.4 -7.5°
Sets 07:19:42 0° 126° (SE) 2,325 2.3 -7.2°
